www.pogodaiklimat.ru

Погода и климат >> Архив погоды >> Буркина-Фасо >> Boromo


ПОГОДА в Boromo

  • Прогноз погоды в Boromo
  • Монитор погоды в Boromo
  • Климат города

АРХИВ ПОГОДЫ в Boromo

Время (UTC), дата Ветер
(напр.,м/с)
 
Видим.   Явления Облачность Т
(С)
Тd
(С)
f
(%)
Тe
(С)
Тes
(С)
Комфортность P
(гПа)
Po
(гПа)
Тmin
(С)
Tmax
(С)
R
(мм)
R24
(мм)
S
(см)
15 14.06 СЗ 5 15 км 9/3 600 м
[Sc Ci sp]
+36.2 +22.6 46 +46 +49 опасность
перегрева
1009.1 979.3
18 14.06 З 2 15 км 9/1 600 м
[Cb cap Ac As Ci sp]
+35.4 +22.7 48 +45 +45 опасность
перегрева
1007.8 977.9 +36.6
21 14.06 З 2 10 км гроза, ливневой дождь 10/3 600 м
[Cb cap Ac As]
+25.8 +20.1 71 +32 +32 очень
душно
1012.9 982.6
00 15.06 штиль 0 10 км гроза без осадков {дождь} 10/1 1200 м
[Cb cap Ac As]
+24.7 +21.8 84 +32 +32 очень
душно
1012.6 982.5 1
03 15.06 штиль 0 10 км {гроза} 9/0
[Ac As Ci sp]
+24.2 +21.1 83 +31 +31 очень
душно
1010.1 980.1
06 15.06 штиль 0 10 км {гроза} 9/0
[Ac As Ci sp]
+24.0 +22.5 91 +31 +31 очень
душно
1010.6 980.5 +23.6 1
09 15.06 штиль 0 15 км 9/0
[Ac As Ci sp]
+27.7 +21.2 68 +35 +44 очень
душно
1012.9 982.5
12 15.06 ЮЗ 1 15 км 9/0
[Ac As Ci sp]
+34.0 +23.4 54 +45 +61 опасность
перегрева
1011.8 981.7
15 15.06 ЮЗ 2 15 км 9/1 600 м
[Sc Ci sp]
+35.2 +22.9 49 +45 +54 опасность
перегрева
1009.7 979.6
18 15.06 З 2 10 км 9/1 1200 м
[Cb cap Ac As Ci sp]
+34.4 +22.4 50 +44 +44 опасность
перегрева
1008.5 978.4 +36.0
21 15.06 ЮЗ 2 10 км зарница 9/1 1200 м
[Cb cap Ac As Ci sp]
+31.8 +22.7 59 +42 +42 опасность
перегрева
1011.0 980.9
00 16.06 штиль 0 10 км 9/0
[Ac As Ci sp]
+29.1 +21.2 62 +37 +37 очень
душно
1010.7 980.8
03 16.06 штиль 0 10 км 9/0
[Ac As Ci sp]
+27.2 +20.7 68 +34 +34 очень
душно
1009.7 979.8
06 16.06 штиль 0 10 км 9/0
[Ci sp]
+25.2 +20.4 75 +31 +31 очень
душно
1011.0 980.9 +24.9
09 16.06 С 2 10 км 9/0
[Ci sp]
+29.5 +22.1 64 +38 +46 очень
душно
1012.0 981.9
12 16.06 З 3 15 км 9/0
[Ci sp]
+34.6 +22.4 49 +44 +58 опасность
перегрева
1011.0 981.1
15 16.06 З 3 15 км 9/1 600 м
[Cu Sc Ci sp]
+36.6 +22.1 43 +45 +52 опасность
перегрева
1008.7 978.9
18 16.06 штиль 0 10 км 9/1 600 м
[Cb cap Ac As Ci sp]
+35.0 +22.8 49 +45 +45 опасность
перегрева
1008.1 978.1 +36.6
21 16.06 Ю 1 10 км 9/0
[Ac trans Ci sp]
+30.2 +21.8 61 +39 +39 очень
душно
1009.5 979.5
00 17.06 Ю 1 10 км 9/0
[Ci sp]
+27.8 +20.7 65 +35 +35 очень
душно
1010.2 980.3
03 17.06 ЮЗ 1 10 км 9/0
[Ac As Ci sp]
+26.4 +21.4 74 +34 +34 очень
душно
1009.6 979.8
06 17.06 ЮЗ 2 10 км 9/1 600 м
[Sc Ac As Ci sp]
+25.7 +21.9 80 +33 +33 очень
душно
1011.3 981.3 +25.7
09 17.06 Ю 3 10 км {дождь} 9/0
[Ac As Ci sp]
+28.0 +21.2 67 +35 +41 очень
душно
1014.1 983.9
12 17.06 Ю 2 10 км {дождь} 9/1 600 м
[Sc Ci sp]
+33.4 +20.0 45 +39 +55 опасность
солнечного
удара
1012.8 982.7 0.0
15 17.06 ЮЗ 3 10 км 9/0
[Ac As Ci sp]
+35.1 +20.4 42 +41 +49 опасность
перегрева
1009.4 979.5
18 17.06 штиль 0 10 км 9/0
[Ac cast Ci sp]
+33.4 +20.4 47 +40 +41 очень
душно
1010.0 980.0 +36.1 0.0
21 17.06 штиль 0 10 км 10/0
[Ac As]
+31.5 +21.3 55 +39 +39 очень
душно
1012.2 982.0
00 18.06 ЮЗ 2 10 км {дождь} 9/0
[Ac As Ci sp]
+30.1 +22.2 63 +39 +39 очень
душно
1012.0 982.1 0.1
03 18.06 ЮЗ 1 10 км 9/0
[Ac As Ci sp]
+28.9 +21.9 66 +37 +37 очень
душно
1011.8 981.9
06 18.06 штиль 0 10 км 9/0
[Ac cast Ci sp]
+27.8 +22.8 74 +37 +37 очень
душно
1012.5 982.5 +27.5 0.1
09 18.06 ЮЗ 2 15 км 9/1 600 м
[Sc Ac trans Ci sp]
+29.7 +22.2 64 +39 +44 очень
душно
1013.0 982.9
12 18.06 З 3 15 км 9/3 600 м
[Sc Ci sp]
+33.2 +21.8 51 +41 +52 опасность
перегрева
1011.4 981.5
15 18.06 З 3 15 км 9/3 600 м
[Sc Ci sp]
+35.0 +21.3 45 +43 +48 опасность
перегрева
1009.5 979.7
18 18.06 ЮЗ 2 15 км {гроза, дождь} 9/1 600 м
[Sc Ac As Ci sp]
+33.6 +22.0 51 +42 +43 опасность
перегрева
1009.7 979.7 +35.7 0.0
21 18.06 ЮЗ 1 10 км 9/0
[Ac trans Ci sp]
+31.6 +21.8 56 +40 +40 очень
душно
1011.7 981.7
00 19.06 З 2 10 км 9/0
[Ac cast Ci sp]
+30.4 +22.2 62 +39 +39 очень
душно
1012.0 982.2
03 19.06 З 1 10 км 9/0
[Ac cast Ci sp]
+29.2 +22.4 67 +38 +38 очень
душно
1011.3 981.5
06 19.06 ЮЗ 3 10 км 9/0
[Ac As Ci sp]
+27.7 +20.7 66 +35 +35 очень
душно
1010.0 980.0 +27.3 0.0
09 19.06 ЮЗ 2 10 км 9/1 600 м
[Sc Ac As Ci sp]
+28.7 +21.9 67 +37 +42 очень
душно
1013.9 983.8
12 19.06 ЮЗ 3 10 км 9/0
[Ac As Ci sp]
+31.4 +19.7 50 +37 +47 очень
душно
1008.6 978.8
15 19.06 штиль 0 10 км 9/0
[Ac As Ci sp]
+33.2 +18.7 42 +38 +48 очень
душно
1008.6 978.8
18 19.06 штиль 0 10 км 9/0
[Ac As Ci sp]
+30.3 +18.8 50 +35 +36 очень
душно
1008.7 978.6 +33.4
21 19.06 ЮЗ 1 10 км 9/0
[Ac As Ci sp]
+28.6 +19.4 58 +34 +34 очень
душно
1010.8 980.7
00 20.06 ЮЗ 2 10 км 9/0
[Ci sp]
+28.2 +21.6 67 +36 +36 очень
душно
1010.1 980.1
03 20.06 ЮЗ 3 10 км 9/0
[Ci sp]
+27.3 +20.5 66 +34 +34 очень
душно
1009.1 979.1
06 20.06 ЮЗ 2 10 км 9/0
[Ci sp]
+26.1 +20.4 71 +32 +32 очень
душно
1011.0 980.7 +25.7
09 20.06 ЮЗ 1 10 км 9/0
[Ci sp]
+28.0 +18.7 57 +33 +43 очень
душно
1012.6 982.3
12 20.06 З 5 10 км 9/0
[Ci sp]
+32.4 +18.6 44 +37 +46 очень
душно
1010.7 980.7
15 20.06 З 4 10 км 9/0
[Ci sp]
+34.3 +18.4 39 +39 +45 очень
душно
1008.6 978.7
18 20.06 Ю 2 10 км 9/0
[Ci sp]
+33.2 +18.8 43 +38 +39 очень
душно
1008.6 978.6 +34.6
21 20.06 штиль 0 10 км 9/0
[Ci sp]
+30.6 +20.4 55 +38 +38 очень
душно
1011.5 981.4
00 21.06 ЮЗ 2 10 км 9/0
[Ci sp]
+29.5 +20.3 58 +36 +36 очень
душно
1011.1 981.2
03 21.06 ЮЗ 3 10 км 9/0
[Ci sp]
+28.0 +20.1 62 +34 +34 очень
душно
1010.0 980.1
06 21.06 ЮЗ 2 10 км 9/0
[Ci sp]
+27.1 +20.1 66 +33 +33 очень
душно
1010.7 980.6 +26.8
09 21.06 ЮЗ 3 10 км 9/0
[Ci sp]
+29.8 +20.3 57 +37 +44 очень
душно
1011.6 981.5
12 21.06 ЮЗ 3 15 км 9/1 600 м
[Sc Ac trans Ci sp]
+33.9 +20.5 46 +41 +49 опасность
перегрева
1010.2 980.3

 

Местоположение метеостанции Boromo (Буркина-Фасо): широта 11.75 долгота -2.93 высота над уровнем моря 271 м.

В архиве по умолчанию представлена погода в Boromo за последнюю неделю. Архивные данные за месяц целиком и за предыдущие месяцы, начиная с января 2011 года, Вы можете получить, выбрав интересующий диапазон дат из раскрывающегося списка и нажав кнопку "Ввод!".


*Определитесь, кто Вы:
робот инопланетянин человек

Внимание! Время в таблицах - всемирное. Для получения местного времени необходимо прибавить поправку, которая в Boromo равна 0 ч.

Смотрите также архив погоды в соседних городах и на ближайших метеорологических станциях:

Погода в Dedougou (Буркина-Фасо) (100 км)
Погода в Gaoua (Буркина-Фасо) (160 км)
Погода в Bobo-Dioulasso (Буркина-Фасо) (165 км)
Погода в Ouagadougou (Буркина-Фасо) (167 км)
Погода в Wa (Гана) (195 км)
Погода в Po (Буркина-Фасо) (205 км)
Погода в Ouahigouya (Буркина-Фасо) (210 км)
Погода в Navrongo (Гана) (221 км)
Погода в San (Мали) (271 км)
Погода в Koutiala (Мали) (285 км)

Пояснения к столбцам:

Ветер - указаны скорость ветра в м/с - средняя за 10 мин, порывы в срок и между сроками (в фигурных скобках) и направление, откуда дует ветер: С - северный, СВ - северо-восточный, В - восточный, ЮВ - юго-восточный, Ю - южный, ЮЗ - юго-западный, З - западный, СЗ - северо-западный.
Видимость - горизонтальная дальность видимости в метрах или километрах. При видимости от 1 до 10 км при отсутствии осадков обычно наблюдается дымка, при ухудшении видимости до 1 км и менее - туман. В сухую погоду видимость может ухудшаться дымом, пылью или мглою.
Явления - указаны атмосферные явления, наблюдавшиеся в срок или в последний час перед сроком; фигурными скобками обозначены явления, наблюдавшиеся между сроками (за 1-3 часа до срока); квадратными скобками обозначены град или гололедные отложения с указанием их диаметра в мм.
Облачность - указаны через наклонную черту общая и нижняя облачность в баллах и высота нижней границы облаков в метрах; квадратными скобками обозначены формы облаков: Ci - перистые, Cs - перисто-слоистые, Cc - перисто-кучевые, Ac - высококучевые, As - высокослоистые, Sc - слоисто-кучевые, Ns - слоисто-дождевые, Cu - кучевые, Cb - кучево-дождевые. Подробнее классификацию облаков см. в Атласе облаков (PDF).
T - Температура воздуха - температура, измеренная на высоте 2 м над землей.
Td - Температура точки росы - температура, при понижении до которой содержащийся в воздухе водяной пар достигнет насыщения.
f - Относительная влажность воздуха - влажноcть воздуха, измеренная на высоте 2 м над землей.
Te - Эффективная температура - температура, которую ощущает одетый по сезону человек в тени. Характеристика душности погоды. При расчете учитывается влияние влажности воздуха и скорости ветра на теплоощущения человека.
Tes - Эффективная температура на солнце - температура, которую ощущает человек, с поправкой на солнечный нагрев. Характеристика знойности погоды. Зависит от высоты солнца над горизонтом, облачности и скорости ветра. Ночью, в пасмурную погоду, а также при ветре 12 м/с и более поправка равна нулю.
P - Атмосферное давление - приведенное к уровню моря атмосферное давление.
Po - Атмосферное давление - измеренное на уровне метеостанции атмосферное давление.
Tmin - Минимальная температура - минимум температуры воздуха на высоте 2 м над землей.
Tmax - Максимальная температура - максимум температуры воздуха на высоте 2 м над землей.
R - Количество осадков - Количество выпавших осадков за период времени, мм. При наведении курсора мыши на число - период времени, за который выпало указанное количество осадков.
R24 - Количество осадков - Количество выпавших осадков за 24 часа, мм.
S - Снежный покров - Высота снежного покрова, см. При наведении курсора мыши на число - состояние снежного покрова и степень покрытия местности в баллах.